Mojave, CA

6:47 AM PDT on May 29, 2017 (GMT -0700)
Mojave

Weather History for KMHV - December, 2012

Change the Weather History Date:

Wednesday, December 26, 2012

  Actual Average Record
Temperature  
Mean Temperature 42 °F -  
Max Temperature 46 °F 56 °F 75 °F (1980)
Min Temperature 39 °F 31 °F 19 °F (1987)
Degree Days  
Heating Degree Days 22    
Moisture  
Dew Point 32 °F    
Average Humidity 67    
Maximum Humidity 81    
Minimum Humidity 50    
Precipitation  
Precipitation 0.01 in - - ()
Sea Level Pressure  
Sea Level Pressure 29.88 in    
Wind  
Wind Speed 19 mph (West)    
Max Wind Speed 50 mph    
Max Gust Speed 56 mph    
Visibility 10 miles    
Events      
Averages and records for this station are not official NWS values.
T = Trace of Precipitation, MM = Missing Value Source: NWS Daily Summary

Daily Weather History Graph

Daily Weather History Graph

Search for Another Location

Airport or City:

Trip Planner

Search our weather history database for the weather conditions in past years. The results will help you decide how hot, cold, wet, or windy it might be!

Date:

Astronomy

Dec. 26, 2012 Rise Set
Actual Time 6:59 AM PST 4:47 PM PST
Civil Twilight 6:31 AM PST 5:16 PM PST
Nautical Twilight 5:59 AM PST 5:47 PM PST
Astronomical Twilight 5:28 AM PST 6:18 PM PST
Moon 3:44 PM PST (12/26) 5:27 AM PST (12/26)
Length of Visible Light 10h 44m
Length of Day
9h 48m
Waxing Gibbous, 98% of the Moon is Illuminated
Dec 26
Waxing Gibbous
Dec 28
Full
Jan 4
Last Quarter
Jan 11
New
Jan 18
First Quarter

Hourly Weather History & Observations

Time (PST) Temp. Windchill Dew Point Humidity Pressure Visibility Wind Dir Wind Speed Gust Speed Precip Events Conditions
12:15 AM 46.4 °F 39.2 °F 32.0 °F 57% 29.88 in 10.0 mi SSW 18.4 mph 29.9 mph N/A   Scattered Clouds
12:35 AM 44.6 °F 36.6 °F 32.0 °F 61% 29.87 in 10.0 mi SSW 19.6 mph 27.6 mph N/A   Partly Cloudy
1:15 AM 41.0 °F 32.5 °F 35.6 °F 81% 29.88 in 7.0 mi WSW 17.3 mph 20.7 mph N/A   Overcast
1:35 AM 41.0 °F 32.2 °F 32.0 °F 70% 29.88 in 10.0 mi WSW 18.4 mph 24.2 mph N/A   Mostly Cloudy
1:55 AM 42.8 °F 34.3 °F 32.0 °F 66% 29.87 in 10.0 mi WSW 19.6 mph 25.3 mph N/A   Mostly Cloudy
2:15 AM 42.8 °F 34.0 °F 32.0 °F 66% 29.88 in 10.0 mi SW 20.7 mph - N/A   Mostly Cloudy
2:35 AM 41.0 °F 32.2 °F 32.0 °F 70% 29.87 in 10.0 mi SW 18.4 mph - N/A   Mostly Cloudy
2:55 AM 42.8 °F 35.4 °F 32.0 °F 66% 29.87 in 10.0 mi SW 15.0 mph - N/A   Mostly Cloudy
3:15 AM 41.0 °F 34.7 °F 32.0 °F 70% 29.86 in 10.0 mi West 10.4 mph - N/A   Scattered Clouds
3:35 AM 41.0 °F 35.2 °F 32.0 °F 70% 29.85 in 10.0 mi West 9.2 mph - N/A   Partly Cloudy
4:15 AM 41.0 °F 35.2 °F 33.8 °F 76% 29.84 in 10.0 mi WSW 9.2 mph - N/A   Scattered Clouds
4:35 AM 41.0 °F 34.7 °F 33.8 °F 76% 29.85 in 10.0 mi West 10.4 mph - N/A   Mostly Cloudy
4:55 AM 41.0 °F 33.9 °F 35.6 °F 81% 29.86 in 10.0 mi West 12.7 mph - N/A   Mostly Cloudy
5:15 AM 41.0 °F 33.5 °F 35.6 °F 81% 29.86 in 7.0 mi West 13.8 mph - N/A   Mostly Cloudy
5:35 AM 41.0 °F 34.3 °F 35.6 °F 81% 29.86 in 10.0 mi WSW 11.5 mph - N/A   Mostly Cloudy
5:55 AM 41.0 °F 34.3 °F 33.8 °F 76% 29.86 in 10.0 mi WSW 11.5 mph - N/A   Partly Cloudy
6:15 AM 41.0 °F 32.2 °F 33.8 °F 76% 29.85 in 10.0 mi WSW 18.4 mph - N/A   Scattered Clouds
6:35 AM 41.0 °F 31.9 °F 35.6 °F 81% 29.87 in 4.0 mi West 19.6 mph 32.2 mph 0.01 in   Mostly Cloudy
6:55 AM 39.2 °F 29.8 °F 33.8 °F 81% 29.88 in 10.0 mi West 18.4 mph 23.0 mph 0.01 in   Mostly Cloudy
7:15 AM 39.2 °F 31.2 °F 32.0 °F 75% 29.89 in 10.0 mi West 13.8 mph - N/A   Clear
7:35 AM 39.2 °F 28.7 °F 33.8 °F 81% 29.87 in 10.0 mi West 23.0 mph 31.1 mph N/A   Clear
7:55 AM 41.0 °F 31.6 °F 33.8 °F 76% 29.88 in 10.0 mi West 20.7 mph 26.5 mph N/A   Clear
8:15 AM 41.0 °F 31.4 °F 33.8 °F 76% 29.88 in 10.0 mi WSW 21.9 mph 29.9 mph N/A   Scattered Clouds
8:35 AM 41.0 °F 32.5 °F 35.6 °F 81% 29.89 in 10.0 mi WSW 17.3 mph 23.0 mph N/A   Partly Cloudy
8:55 AM 44.6 °F 36.6 °F 33.8 °F 66% 29.90 in 10.0 mi West 19.6 mph 29.9 mph N/A   Clear
9:15 AM 44.6 °F 37.2 °F 33.8 °F 66% 29.92 in 10.0 mi WNW 17.3 mph 25.3 mph N/A   Clear
9:35 AM 44.6 °F 40.2 °F 33.8 °F 66% 29.92 in 10.0 mi NW 8.1 mph 20.7 mph N/A   Scattered Clouds
9:55 AM 46.4 °F 39.5 °F 33.8 °F 62% 29.92 in 10.0 mi West 17.3 mph 24.2 mph N/A   Mostly Cloudy
10:15 AM 46.4 °F 38.7 °F 33.8 °F 62% 29.91 in 10.0 mi West 20.7 mph 26.5 mph N/A   Partly Cloudy
10:35 AM 46.4 °F 37.4 °F 32.0 °F 57% 29.88 in 10.0 mi West 28.8 mph 38.0 mph N/A   Clear
10:55 AM 46.4 °F 36.9 °F 32.0 °F 57% 29.86 in 10.0 mi West 32.2 mph 43.7 mph N/A   Clear
11:15 AM 46.4 °F 36.5 °F 32.0 °F 57% 29.84 in 10.0 mi West 34.5 mph 50.6 mph N/A   Clear
11:35 AM 46.4 °F 36.0 °F 30.2 °F 53% 29.82 in 10.0 mi WNW 39.1 mph 55.2 mph N/A   Clear
11:55 AM 46.4 °F 35.2 °F 30.2 °F 53% 29.80 in 9.0 mi WNW 46.0 mph 56.4 mph N/A   Clear
12:15 PM 46.4 °F 34.9 °F 32.0 °F 57% 29.78 in 9.0 mi WNW 49.5 mph 56.4 mph N/A   Clear
12:35 PM 46.4 °F 35.3 °F 30.2 °F 53% 29.78 in 9.0 mi WNW 44.9 mph 55.2 mph N/A   Clear
12:55 PM 46.4 °F 36.0 °F 28.4 °F 50% 29.79 in 10.0 mi WNW 39.1 mph 54.1 mph N/A   Clear
1:15 PM 46.4 °F 36.3 °F 30.2 °F 53% 29.81 in 10.0 mi WNW 36.8 mph 49.5 mph N/A   Clear
1:35 PM 46.4 °F 38.3 °F 28.4 °F 50% 29.84 in 10.0 mi West 23.0 mph 41.4 mph N/A   Clear
1:55 PM 46.4 °F 43.5 °F 30.2 °F 53% 29.87 in 10.0 mi West 5.8 mph 21.9 mph N/A   Clear
2:15 PM 46.4 °F 37.0 °F 32.0 °F 57% 29.84 in 10.0 mi WNW 31.1 mph 41.4 mph N/A   Clear
2:35 PM 46.4 °F 37.2 °F 30.2 °F 53% 29.84 in 10.0 mi WNW 29.9 mph 41.4 mph N/A   Clear
2:55 PM 44.6 °F 39.7 °F 32.0 °F 61% 29.88 in 10.0 mi WNW 9.2 mph 32.2 mph N/A   Clear
3:15 PM 44.6 °F 38.4 °F 32.0 °F 61% 29.88 in 10.0 mi West 12.7 mph 23.0 mph N/A   Clear
3:35 PM 44.6 °F 35.9 °F 32.0 °F 61% 29.87 in 10.0 mi West 23.0 mph 34.5 mph N/A   Clear
3:55 PM 44.6 °F 36.9 °F 30.2 °F 57% 29.88 in 10.0 mi WNW 18.4 mph 36.8 mph N/A   Clear
4:15 PM 44.6 °F 37.4 °F 30.2 °F 57% 29.89 in 10.0 mi West 16.1 mph 29.9 mph N/A   Clear
4:35 PM 41.0 °F 31.1 °F 30.2 °F 65% 29.88 in 10.0 mi West 23.0 mph 31.1 mph N/A   Clear
4:55 PM 41.0 °F 33.1 °F 30.2 °F 65% 29.88 in 10.0 mi West 15.0 mph 28.8 mph N/A   Clear
5:15 PM 41.0 °F 36.4 °F 30.2 °F 65% 29.89 in 10.0 mi WSW 6.9 mph 27.6 mph N/A   Clear
5:35 PM 41.0 °F 34.7 °F 30.2 °F 65% 29.90 in 10.0 mi North 10.4 mph 17.3 mph N/A   Clear
5:55 PM 41.0 °F 33.9 °F 32.0 °F 70% 29.91 in 10.0 mi SSW 12.7 mph 18.4 mph N/A   Clear
6:15 PM 41.0 °F 32.8 °F 32.0 °F 70% 29.91 in 10.0 mi SSE 16.1 mph 20.7 mph N/A   Scattered Clouds
6:35 PM 41.0 °F 36.4 °F 32.0 °F 70% 29.93 in 10.0 mi South 6.9 mph - N/A   Mostly Cloudy
6:55 PM 41.0 °F 34.3 °F 30.2 °F 65% 29.94 in 10.0 mi WSW 11.5 mph 16.1 mph N/A   Scattered Clouds
7:15 PM 41.0 °F 35.8 °F 30.2 °F 65% 29.94 in 10.0 mi WSW 8.1 mph - N/A   Clear
7:35 PM 41.0 °F 33.5 °F 30.2 °F 65% 29.94 in 10.0 mi West 13.8 mph 23.0 mph N/A   Clear
7:55 PM 41.0 °F 31.6 °F 32.0 °F 70% 29.94 in 10.0 mi West 20.7 mph - N/A   Clear
8:15 PM 41.0 °F 30.9 °F 32.0 °F 70% 29.94 in 10.0 mi West 24.2 mph - N/A   Clear
8:35 PM 41.0 °F 31.6 °F 32.0 °F 70% 29.93 in 10.0 mi West 20.7 mph 31.1 mph N/A   Partly Cloudy
8:55 PM 39.2 °F 30.2 °F 32.0 °F 75% 29.93 in 10.0 mi West 17.3 mph - N/A   Clear
9:15 PM 41.0 °F 30.5 °F 32.0 °F 70% 29.92 in 10.0 mi West 26.5 mph 29.9 mph N/A   Clear
9:35 PM 41.0 °F 29.8 °F 32.0 °F 70% 29.92 in 10.0 mi West 29.9 mph 35.7 mph N/A   Clear
9:55 PM 39.2 °F 26.8 °F 32.0 °F 75% 29.92 in 10.0 mi WSW 33.4 mph 38.0 mph N/A   Clear
10:15 PM 39.2 °F 27.2 °F 32.0 °F 75% 29.92 in 10.0 mi West 31.1 mph 41.4 mph N/A   Clear
10:35 PM 39.2 °F 27.8 °F 32.0 °F 75% 29.94 in 10.0 mi West 27.6 mph 32.2 mph N/A   Clear
10:55 PM 39.2 °F 28.3 °F 32.0 °F 75% 29.94 in 10.0 mi West 25.3 mph - N/A   Clear
11:15 PM 39.2 °F 30.2 °F 32.0 °F 75% 29.95 in 10.0 mi West 17.3 mph 24.2 mph N/A   Clear
11:35 PM 39.2 °F 31.6 °F 32.0 °F 75% 29.96 in 10.0 mi West 12.7 mph 18.4 mph N/A   Clear
11:55 PM 39.2 °F 31.2 °F 30.2 °F 70% 29.95 in 10.0 mi SW 13.8 mph - N/A   Scattered Clouds